User: anonymous   Login
Location: Dziadowski
(50.3833°N, 20.0333°E)
Time: 18:43:18
(UTC+00:00)
Language:

CZ-4C R/B - Orbit

View from above orbital plane
View from above orbital plane
View from above satellite
View from above satellite

Ground track
Ground track

The orbit is defined by the following mean orbital elements,

1 36416U          26068.42029735 +.00000000 +00000-0 +32005-3 0 00000
2 36416  63.3888 315.1157 0690053   2.6435 357.7960 13.72981726    07
Epoch (UTC): 09 March 2026 10:05:13
Eccentricity: 0.0690053
inclination: 63.3888°
perigee height: 481 km
apogee height: 1497 km
right ascension of ascending node: 315.1157°
argument of perigee: 2.6435°
revolutions per day: 13.72981726
mean anomaly at epoch: 357.7960°

The dashed part of the orbit path shows where the satellite is in the earth's shadow,  

DLR